Find Kosmos-1977

NORAD ID: 19608 Int'l Des: 1988-096 Owner: PVO Country: SU operational
MEOELLIPTICALHEO_ELLIPTICALSEMI_SYNC

Live-Position

3D-Globus wird geladen...

Über Kosmos-1977

Beschreibung wird geladen...

Nächste Überflüge

Passes for default location (London). Set your location on the main map for personalized predictions.

Höhenverlauf

Loading altitude history...

Zweizeiliger Elementsatz

1 19608U 88096A 26075.21644027 .00000729 00000-0 00000-0 0 9999
2 19608 69.0770 119.5639 5485689 53.0657 358.6825 2.00348151273935
Epoch: 16. März 2026 • Age: 1366 hours

Aktueller Status

Höhe 6403.0 km
Geschwindigkeit 6.89 km/s
Subsatellitenpunkt 68.95°N, 73.56°W
Startdatum 25. Okt. 1988
Alter 37.5 years
Typ other

Technische Details

Klassifizierung Payload
Masse 1250.00 kg
Trockenmasse 1150.00 kg
Gesamtmasse 1250.00 kg
Länge 4.00 m
Durchmesser 2.00 m
Spannweite 5.00 m
Form Cyl + 2 Pan
Hersteller NPOL/KOMET
Bus-Typ Oko
Phasenstatus In Orbit
Besitzer/Staat PVO/SU

Most Searched